[[{"header":{"parameterUnit":"m.s-1","parameterCategory":1,"la1":30.2991,"la2":30.254,"lo1":-89.0895,"lo2":-89.0444,"dy":0.0017,"dx":0.0017,"nx":28,"ny":28,"refTime":"2024-07-26T09:00:00:Z","depth":0,"parameterNumber":2,"parameterNumberName":"U-component_of_WINDS"},"data":[0,0,0,0,0,0,0,0,0,0,0,0,0,0,0,0,0,0,0,0,0,0,0,0,0,0,0,0,0,0,0,0,0,0,0,0,0,0,0,0,0,0,0,0,0,0,0,0,0,0,0,0,0,0,0,0,0,0,-1.5696,-1.5695,0,-1.5639,-1.5639,-1.5638,-1.5567,-1.5566,-1.5565,-1.5564,-1.5506,-1.5506,-1.5505,0,0,0,0,0,0,0,0,0,0,0,0,0,-1.5742,-1.5742,-1.5696,-1.5695,-1.5694,-1.5639,-1.5639,-1.5638,-1.5567,-1.5566,-1.5564,-1.5563,-1.5506,-1.5506,-1.5505,0,0,0,0,0,0,0,0,0,0,0,0,0,-1.5708,-1.5742,-1.5696,-1.5653,-1.5648,-1.564,-1.5639,-1.5638,-1.5567,-1.5566,-1.5564,-1.5562,-1.5506,-1.5506,-1.5505,-1.5535,0,0,-1.5503,-1.5502,0,0,0,0,0,0,0,0,-1.571,-1.5706,-1.566,-1.5656,-1.5651,-1.5608,-1.5634,-1.5603,-1.5568,-1.5598,-1.5564,-1.5562,-1.5541,-1.5538,-1.5531,-1.5532,-1.5529,-1.5503,-1.5502,-1.5502,-1.5502,0,0,0,0,0,0,0,-1.5712,-1.5708,-1.5673,-1.5659,-1.5654,-1.5636,-1.5629,-1.5628,-1.558,-1.5595,-1.559,-1.5584,-1.5539,-1.5532,-1.5529,-1.5529,-1.5503,-1.5502,-1.5502,-1.5501,-1.5549,-1.555,0,0,0,0,0,0,-1.5721,-1.571,-1.5675,-1.5672,-1.5676,-1.5636,-1.5629,-1.5624,-1.558,-1.5572,-1.5586,-1.5581,-1.5534,-1.553,-1.5527,-1.5556,-1.5502,-1.5501,-1.5501,-1.5547,-1.5549,-1.5551,0,0,0,0,0,0,-1.5722,-1.5719,-1.5678,-1.569,-1.5683,-1.5637,-1.5632,-1.5623,-1.5616,-1.5573,-1.5564,-1.5587,-1.5532,-1.5528,-1.5533,-1.5554,-1.5501,-1.55,-1.5545,-1.5548,-1.555,-1.5618,0,0,0,0,0,0,-1.5724,-1.5719,-1.573,-1.569,-1.5683,-1.5685,-1.5634,-1.5624,-1.5615,-1.5609,-1.5572,-1.5564,-1.5531,-1.5534,-1.5532,-1.5552,-1.55,-1.5543,-1.5546,-1.5549,-1.5614,-1.5622,-1.563,0,0,0,0,0,-1.5726,-1.5752,-1.5731,-1.5727,-1.5695,-1.5686,-1.5682,-1.5643,-1.5617,-1.5628,-1.5599,-1.5565,-1.5552,-1.5535,-1.5532,-1.5552,-1.5541,-1.5545,-1.5549,-1.561,-1.5621,-1.563,0,0,0,0,0,0,-1.5796,-1.5746,-1.5722,-1.5737,-1.5716,-1.5674,-1.5686,-1.5656,-1.5642,-1.5636,-1.5588,-1.5581,-1.5591,-1.5572,-1.5554,-1.5577,-1.5542,-1.5545,-1.5589,-1.5599,-1.5607,-1.5611,-1.5499,0,0,0,0,0,-1.5814,-1.581,-1.5767,-1.5784,-1.5775,-1.5732,-1.5727,-1.5698,-1.5675,-1.5666,-1.5638,-1.5617,-1.5607,-1.5602,-1.5592,-1.5611,-1.5601,-1.5623,-1.5631,-1.5638,-1.5641,-1.5648,-1.5657,-1.5563,-1.5563,-1.5563,0,0,-1.5849,-1.5821,-1.5822,-1.5797,-1.5778,-1.5775,-1.5725,-1.5725,-1.5722,-1.5666,-1.5668,-1.5647,-1.562,-1.5632,-1.5636,-1.5616,-1.5665,-1.5643,-1.5649,-1.5648,-1.5653,-1.5662,-1.567,-1.5566,-1.5565,-1.5565,0,0,-1.5912,-1.5892,-1.5902,-1.5884,-1.5855,-1.5826,-1.5829,-1.5792,-1.5775,-1.5777,-1.5734,-1.573,-1.5716,-1.5697,-1.5686,-1.5741,-1.5709,-1.5739,-1.5782,-1.5789,-1.5796,-1.5803,-1.582,-1.5827,-1.5743,-1.5743,-1.5743,0,-1.596,-1.5954,-1.5912,-1.5913,-1.5903,-1.5852,-1.5862,-1.5846,-1.5815,-1.5809,-1.5788,-1.5768,-1.5746,-1.5752,-1.5765,-1.5759,-1.5759,-1.5743,-1.5799,-1.5805,-1.581,-1.5826,-1.5833,-1.5747,-1.5746,-1.5746,-1.5746,0,-1.6013,-1.6009,-1.6022,-1.5992,-1.5984,-1.599,-1.5948,-1.5944,-1.5917,-1.589,-1.5892,-1.5864,-1.5846,-1.5845,-1.5819,-1.5847,-1.5835,-1.5808,-1.577,-1.5823,-1.5837,-1.5844,-1.5752,-1.5751,-1.575,-1.5749,0,0,-1.6118,-1.6065,-1.607,-1.6055,-1.602,-1.6016,-1.6019,-1.6001,-1.5998,-1.5979,-1.5979,-1.5968,-1.5941,-1.5929,-1.5899,-1.5906,-1.5949,-1.5877,-1.5875,-1.5889,-1.5976,-1.5995,-1.6003,-1.5928,-1.5929,-1.593,-1.5977,0,-1.6173,-1.6175,-1.6137,-1.6149,-1.6145,-1.6096,-1.6099,-1.6077,-1.6052,-1.6044,-1.6017,-1.6009,-1.5975,-1.5967,-1.5972,-1.5943,-1.5965,-1.5939,-1.5926,-1.5926,-1.5933,-1.6011,-1.6033,-1.6079,-1.5983,-1.5984,-1.5984,0,-1.6237,-1.622,-1.6232,-1.6194,-1.6191,-1.6194,-1.6173,-1.6167,-1.614,-1.6122,-1.6108,-1.6074,-1.6074,-1.604,-1.6038,-1.6021,-1.6013,-1.5998,-1.5999,-1.5995,-1.5957,-1.6007,-1.6093,-1.6099,-1.5993,-1.5993,-1.5992,0,-1.631,-1.6291,-1.6294,-1.6284,-1.624,-1.6243,-1.6225,-1.6197,-1.6188,-1.6171,-1.6164,-1.6147,-1.6137,-1.6124,-1.6086,-1.6065,-1.6088,-1.6051,-1.6071,-1.6072,-1.6077,-1.6077,-1.616,-1.6076,-1.6076,-1.6075,-1.6075,0,-1.6374,-1.6382,-1.6326,-1.6329,-1.6337,-1.6293,-1.6302,-1.6279,-1.6255,-1.6251,-1.6208,-1.6206,-1.6157,-1.6149,-1.612,-1.6121,-1.6118,-1.6102,-1.6093,-1.6104,-1.6106,-1.6098,-1.6093,-1.6077,-1.6077,-1.6077,-1.6076,0,-1.6456,-1.6419,-1.642,-1.6379,-1.6368,-1.6376,-1.634,-1.634,-1.6313,-1.6309,-1.6305,-1.6262,-1.625,-1.6212,-1.619,-1.617,-1.618,-1.6166,-1.6189,-1.6183,-1.6205,-1.6202,-1.6284,-1.6292,-1.6205,-1.6205,-1.6206,0,-1.6498,-1.6504,-1.6463,-1.6457,-1.6441,-1.6433,-1.6423,-1.638,-1.6372,-1.6341,-1.6345,-1.6329,-1.6314,-1.6297,-1.6264,-1.6247,-1.623,-1.626,-1.6228,-1.6238,-1.6228,-1.6228,-1.6227,-1.6267,-1.6268,-1.6269,-1.627,0,-1.6577,-1.6558,-1.6546,-1.6527,-1.6516,-1.65,-1.648,-1.6478,-1.643,-1.6423,-1.641,-1.6398,-1.6376,-1.636,-1.6338,-1.6318,-1.6285,-1.6281,-1.6284,-1.6294,-1.6306,-1.6298,-1.6206,-1.6279,-1.6278,-1.6277,-1.6277,-1.6276,-1.6639,-1.6641,-1.6612,-1.6599,-1.658,-1.6562,-1.656,-1.6532,-1.652,-1.6498,-1.6474,-1.6463,-1.6435,-1.6401,-1.6384,-1.6375,-1.6357,-1.6363,-1.6364,-1.6365,-1.637,-1.631,-1.6371,-1.6371,-1.637,-1.637,-1.637,0,-1.6713,-1.6692,-1.6681,-1.6655,-1.6645,-1.6615,-1.6592,-1.6585,-1.6576,-1.6553,-1.6539,-1.6523,-1.6508,-1.6473,-1.6454,-1.6453,-1.6437,-1.6449,-1.6448,-1.6443,-1.6387,-1.6385,-1.6462,-1.6462,-1.6462,-1.6462,-1.6462,-1.6462,-1.6751,-1.6751,-1.6729,-1.672,-1.6698,-1.6687,-1.6676,-1.6659,-1.664,-1.6625,-1.6611,-1.6589,-1.656,-1.6539,-1.6523,-1.6513,-1.6507,-1.6523,-1.6508,-1.6456,-1.6448,-1.6439,-1.6437,-1.6523,-1.6523,-1.6564,-1.6565,-1.6565]},{"header":{"parameterUnit":"m.s-1","parameterCategory":1,"la1":30.2991,"la2":30.254,"lo1":-89.0895,"lo2":-89.0444,"dy":0.0017,"dx":0.0017,"nx":28,"ny":28,"refTime":"2024-07-26T09:00:00:Z","depth":0,"parameterNumber":3,"parameterNumberName":"V-component_of_WINDS"},"data":[0,0,0,0,0,0,0,0,0,0,0,0,0,0,0,0,0,0,0,0,0,0,0,0,0,0,0,0,0,0,0,0,0,0,0,0,0,0,0,0,0,0,0,0,0,0,0,0,0,0,0,0,0,0,0,0,0,0,1.7164,1.7165,0,1.7248,1.7249,1.725,1.7244,1.7242,1.7241,1.724,1.7324,1.7327,1.7331,0,0,0,0,0,0,0,0,0,0,0,0,0,1.6998,1.7001,1.7164,1.7165,1.7166,1.7248,1.7249,1.725,1.7244,1.7242,1.7241,1.7239,1.7323,1.7327,1.7331,0,0,0,0,0,0,0,0,0,0,0,0,0,1.7074,1.7002,1.7164,1.7173,1.7175,1.7247,1.7249,1.725,1.7244,1.7242,1.724,1.7239,1.7321,1.7326,1.7331,1.74,0,0,1.7347,1.7349,0,0,0,0,0,0,0,0,1.707,1.708,1.7171,1.7172,1.7174,1.7233,1.7221,1.73,1.7245,1.7218,1.724,1.7238,1.7295,1.7302,1.7322,1.7404,1.7407,1.7347,1.735,1.7353,1.7354,0,0,0,0,0,0,0,1.7065,1.7077,1.7197,1.7172,1.7174,1.7172,1.7181,1.7236,1.7266,1.722,1.722,1.723,1.7296,1.7317,1.7324,1.7409,1.7347,1.7352,1.7355,1.7357,1.755,1.7552,0,0,0,0,0,0,1.7057,1.7072,1.7194,1.7199,1.7117,1.7177,1.7187,1.7216,1.7265,1.7271,1.7231,1.7229,1.7309,1.7318,1.7327,1.741,1.7353,1.7357,1.736,1.7548,1.7551,1.7553,0,0,0,0,0,0,1.7054,1.7068,1.7191,1.7136,1.7151,1.7182,1.7215,1.7219,1.724,1.7274,1.7279,1.7248,1.7308,1.732,1.7382,1.7413,1.736,1.7364,1.7546,1.7549,1.7552,1.7577,0,0,0,0,0,0,1.7049,1.7067,1.7094,1.7137,1.7154,1.7245,1.7217,1.7222,1.7249,1.7247,1.729,1.7296,1.7308,1.7374,1.7387,1.7419,1.7368,1.7543,1.7547,1.7551,1.7573,1.7581,1.7587,0,0,0,0,0,1.7043,1.7097,1.7095,1.711,1.7188,1.7247,1.7257,1.727,1.7252,1.7278,1.73,1.7294,1.7408,1.7381,1.7395,1.7429,1.7541,1.7546,1.7551,1.757,1.7579,1.7586,0,0,0,0,0,0,1.7057,1.7103,1.7101,1.7171,1.7205,1.7246,1.728,1.7279,1.7319,1.7315,1.7329,1.7339,1.7401,1.7421,1.7391,1.7497,1.7472,1.748,1.7482,1.7491,1.7497,1.7491,1.7372,0,0,0,0,0,1.7068,1.7112,1.715,1.7207,1.7225,1.7249,1.7275,1.7283,1.7318,1.7333,1.7359,1.7393,1.7437,1.7465,1.7506,1.7576,1.7586,1.7607,1.7613,1.7619,1.7625,1.7663,1.7673,1.7569,1.7569,1.7569,0,0,1.7091,1.7122,1.7149,1.7211,1.7238,1.7283,1.7262,1.731,1.7343,1.734,1.74,1.7421,1.746,1.7526,1.7557,1.7545,1.7656,1.7625,1.7629,1.7632,1.7669,1.7679,1.7688,1.7572,1.7571,1.7571,0,0,1.7156,1.7184,1.7235,1.7263,1.7305,1.7321,1.7333,1.7375,1.7388,1.7449,1.7448,1.7487,1.7562,1.759,1.7614,1.769,1.7686,1.7703,1.7737,1.7774,1.7783,1.779,1.7817,1.7826,1.7709,1.771,1.771,0,1.7179,1.7247,1.7261,1.731,1.7337,1.7337,1.7388,1.7415,1.7468,1.7487,1.7473,1.7566,1.7593,1.7666,1.7684,1.7704,1.7718,1.7698,1.778,1.7788,1.7795,1.7821,1.7831,1.7711,1.7711,1.7711,1.7711,0,1.7274,1.7321,1.7357,1.7409,1.7441,1.749,1.7511,1.7541,1.7546,1.7563,1.7625,1.7657,1.7705,1.7723,1.7728,1.7797,1.7788,1.7777,1.7752,1.7806,1.7831,1.7841,1.7714,1.7713,1.7713,1.7712,0,0,1.7349,1.7409,1.7422,1.7445,1.7492,1.7528,1.7578,1.7626,1.7651,1.7688,1.773,1.7793,1.7783,1.781,1.7818,1.7851,1.7909,1.7836,1.7837,1.7848,1.7987,1.7994,1.8005,1.7907,1.7909,1.791,1.7983,0,1.7419,1.7508,1.7522,1.7599,1.7643,1.7643,1.7687,1.772,1.7738,1.7777,1.7796,1.7841,1.7825,1.7841,1.7874,1.7895,1.7937,1.789,1.7945,1.7947,1.7935,1.8018,1.8027,1.8094,1.7993,1.7994,1.7996,0,1.7512,1.7552,1.7634,1.7675,1.7693,1.7732,1.7777,1.7815,1.7852,1.7863,1.7893,1.7897,1.7949,1.7921,1.7992,1.796,1.7983,1.7997,1.8,1.8005,1.7974,1.8025,1.8115,1.8125,1.8011,1.801,1.8009,0,1.7558,1.7632,1.7691,1.7711,1.776,1.7787,1.7809,1.7845,1.7872,1.7911,1.793,1.7974,1.7998,1.8032,1.8048,1.8027,1.8117,1.8091,1.8127,1.8127,1.8146,1.8144,1.824,1.8162,1.8162,1.8161,1.8161,0,1.7634,1.7684,1.7713,1.7749,1.7805,1.782,1.7875,1.7896,1.7928,1.7968,1.7971,1.8008,1.8027,1.8067,1.8079,1.8136,1.8147,1.8156,1.8159,1.8156,1.8155,1.8171,1.8167,1.8164,1.8163,1.8163,1.8162,0,1.7695,1.7716,1.778,1.7821,1.7833,1.7873,1.7908,1.7943,1.796,1.8011,1.8023,1.8051,1.8098,1.8118,1.8175,1.8184,1.8249,1.8248,1.8236,1.8237,1.8271,1.8268,1.8381,1.8397,1.8308,1.8309,1.8309,0,1.7742,1.7781,1.7826,1.7853,1.7876,1.792,1.7948,1.7965,1.7994,1.804,1.8069,1.8117,1.8155,1.8231,1.8256,1.83,1.83,1.8337,1.8306,1.8302,1.83,1.8297,1.8301,1.8342,1.8343,1.8344,1.8344,0,1.7823,1.7831,1.7873,1.7918,1.7952,1.7988,1.8023,1.8045,1.8067,1.81,1.8149,1.8179,1.8238,1.8285,1.8331,1.8352,1.8352,1.8354,1.8364,1.8361,1.8353,1.8357,1.8251,1.8351,1.835,1.835,1.8349,1.8349,1.7878,1.7912,1.795,1.7996,1.8024,1.8057,1.8092,1.8114,1.8155,1.8205,1.8212,1.8264,1.8301,1.8362,1.8386,1.8426,1.8417,1.8432,1.8436,1.8439,1.8441,1.8347,1.8435,1.8434,1.8434,1.8434,1.8434,0,1.7959,1.7983,1.8025,1.8074,1.811,1.8108,1.8146,1.8177,1.8222,1.8257,1.8295,1.8351,1.8396,1.8425,1.8471,1.8498,1.8499,1.8509,1.8507,1.8512,1.8447,1.8434,1.8508,1.8508,1.8508,1.8508,1.8508,1.8508,1.8005,1.8063,1.8076,1.8148,1.8172,1.8223,1.8245,1.8276,1.8303,1.8365,1.8404,1.8422,1.8454,1.8502,1.8544,1.8551,1.8568,1.8579,1.8586,1.8524,1.8517,1.8509,1.8496,1.8583,1.8583,1.8647,1.8647,1.8648]}]]